Find Starlink 5160

NORAD ID: 54080 Int'l Des: 2022-136 Owner: SPXS Country: US Constellation: starlink operational
LEOCIRCULAR

Live Position

Loading 3D Globe...

About Starlink 5160

Description loading...

Upcoming Passes

Passes for default location (London). Set your location on the main map for personalized predictions.

Altitude History

Loading altitude history...

Two-Line Element Set

1 54080U 22136AF 26104.83335647 -.00001557 00000-0 -58595-4 0 9999
2 54080 53.2158 176.7874 0000766 167.3612 126.3208 15.18930988 5805
Epoch: Apr 14, 2026 • Age: 5 hours

Current Status

Altitude 526.9 km
Velocity 7.60 km/s
Sub-Earth Point -51.43°S, 147.11°W
Launch Date Oct 20, 2022
Age 3.4 years
Type internet

Technical Details

Classification Payload
Mass 305.00 kg
Dry Mass 290.00 kg
Total Mass 305.00 kg
Length 0.20 m
Diameter 2.80 m
Span 9.00 m
Shape Box + pan
Manufacturer SPXS
Bus Type Starlink
Phase Status In Orbit
Owner/State SPXS/US

Most Searched